Location: Bijele Vode
(45.2833°N, 16.2000°E)
Time: 16:40:31
(UTC+00:00)

Cosmos 2034 Rocket - Pass Details

Date: 18 September 2020
Orbit: 957 x 1001 km, 82.9° (Epoch: 20 October)

Event Time Altitude Azimuth Distance (km) Brightness Sun altitude
Rises 18:53:09 0° 188° (S) 3,711 6.9 -20.1°
Reaches altitude 10° 18:55:41 10° 189° (S) 2,765 6.2 -20.5°
Maximum altitude 19:02:03 84° 277° (W) 1,011 4.0 -21.6°
Drops below altitude 10° 19:08:27 10° 7° (N) 2,770 6.6 -22.6°
Sets 19:10:59 0° 8° (N) 3,718 7.3 -23.0°
